Novato, CA

1:28 AM PST on November 18, 2019 (GMT -0800)
Gnoss

Weather History for KDVO - September, 2019

Change the Weather History Date:

Thursday, September 26, 2019

  Actual Average (WUND) Record (WUND)
Temperature  
Mean Temperature 68 °F -  
Max Temperature 78 °F - - (-1)
Min Temperature 57 °F - - (-1)
Cooling Degree Days 2    
Growing Degree Days 18 (Base 50)    
Moisture  
Dew Point 57 °F    
Average Humidity 67    
Maximum Humidity 83    
Minimum Humidity 50    
Precipitation  
Precipitation 0.00 in - - ()
Sea Level Pressure  
Sea Level Pressure 29.88 in    
Wind  
Wind Speed 6 mph ()    
Max Wind Speed 18 mph    
Max Gust Speed 24 mph    
Visibility 10.0 miles    
Events      
Averages and records for this station are not official NWS values.
T = Trace of Precipitation, MM = Missing Value Source: Averaged Metar Reports

Daily Weather History Graph

Daily Weather History Graph

Search for Another Location

Airport or City:

Astronomy

Sep. 26, 2019 Rise Set
Actual Time 7:01 AM PDT 7:01 PM PDT
Civil Twilight 6:35 AM PDT 7:27 PM PDT
Nautical Twilight 6:04 AM PDT 7:57 PM PDT
Astronomical Twilight 5:33 AM PDT 8:28 PM PDT
Moon 4:18 AM PDT (9/26) 6:14 PM PDT (9/26)
Length of Visible Light 12h 52m
Length of Day
11h 59m
Waning Crescent, 6% of the Moon is Illuminated
Sep 26
Waning Crescent
Sep 28
New
Oct 5
First Quarter
Oct 13
Full
Oct 21
Last Quarter

Hourly Weather History & Observations

Time (PDT) Temp. Dew Point Humidity Pressure Visibility Wind Dir Wind Speed Gust Speed Precip Events Conditions
12:15 AM 66.2 °F 55.4 °F 68% 29.74 in 10.0 mi Calm Calm - N/A   Clear
12:35 AM 62.6 °F 51.8 °F 68% 29.75 in 10.0 mi North 5.8 mph - N/A   Clear
12:55 AM 62.6 °F 53.6 °F 72% 29.75 in 10.0 mi NNW 4.6 mph - N/A   Clear
1:15 AM 64.4 °F 57.2 °F 77% 29.75 in 10.0 mi NNW 4.6 mph - N/A   Clear
1:35 AM 64.4 °F 57.2 °F 77% 29.75 in 10.0 mi North 6.9 mph - N/A   Clear
1:55 AM 60.8 °F 53.6 °F 77% 29.76 in 10.0 mi North 4.6 mph - N/A   Clear
2:15 AM 64.4 °F 53.6 °F 68% 29.76 in 10.0 mi North 6.9 mph - N/A   Clear
2:35 AM 62.6 °F 53.6 °F 72% 29.76 in 10.0 mi North 4.6 mph - N/A   Clear
2:55 AM 64.4 °F 51.8 °F 64% 29.76 in 10.0 mi Calm Calm - N/A   Clear
3:15 AM 64.4 °F 51.8 °F 64% 29.77 in 10.0 mi NNE 3.5 mph - N/A   Clear
3:35 AM 60.8 °F 53.6 °F 77% 29.77 in 10.0 mi NNW 8.1 mph - N/A   Clear
3:55 AM 60.8 °F 53.6 °F 77% 29.78 in 10.0 mi NNW 5.8 mph - N/A   Clear
4:15 AM 60.8 °F 53.6 °F 77% 29.79 in 10.0 mi North 3.5 mph - N/A   Clear
4:55 AM 59.0 °F 53.6 °F 82% 29.80 in 10.0 mi Calm Calm - N/A   Clear
5:15 AM 60.8 °F 53.6 °F 77% 29.81 in 10.0 mi Calm Calm - N/A   Clear
5:35 AM 60.8 °F 53.6 °F 77% 29.82 in 10.0 mi Calm Calm - N/A   Clear
5:55 AM 57.2 °F 51.8 °F 82% 29.83 in 10.0 mi Calm Calm - N/A   Clear
6:15 AM 59.0 °F 53.6 °F 82% 29.83 in 10.0 mi Calm Calm - N/A   Clear
6:35 AM 60.8 °F 53.6 °F 77% 29.84 in 10.0 mi Calm Calm - N/A   Clear
6:55 AM 59.0 °F 53.6 °F 82% 29.84 in 10.0 mi SSE 4.6 mph - N/A   Clear
7:15 AM 59.0 °F 53.6 °F 82% 29.84 in 10.0 mi Calm Calm - N/A   Clear
7:35 AM 59.0 °F 53.6 °F 82% 29.85 in 10.0 mi NNW 5.8 mph - N/A   Clear
7:55 AM 60.8 °F 55.4 °F 82% 29.86 in 10.0 mi NNW 3.5 mph - N/A   Clear
8:15 AM 66.2 °F 55.4 °F 68% 29.87 in 10.0 mi Calm Calm - N/A   Clear
8:35 AM 66.2 °F 55.4 °F 68% 29.88 in 10.0 mi Calm Calm - N/A   Clear
8:55 AM 69.8 °F 55.4 °F 60% 29.89 in 10.0 mi ESE 4.6 mph - N/A   Clear
9:15 AM 71.6 °F 57.2 °F 60% 29.89 in 10.0 mi Calm Calm - N/A   Clear
9:35 AM 73.4 °F 57.2 °F 57% 29.90 in 10.0 mi Calm Calm - N/A   Clear
9:55 AM 75.2 °F 57.2 °F 53% 29.91 in 10.0 mi North 8.1 mph - N/A   Clear
10:15 AM 75.2 °F 57.2 °F 53% 29.92 in 10.0 mi Calm Calm - N/A   Clear
10:35 AM 77.0 °F 57.2 °F 50% 29.92 in 10.0 mi Calm Calm - N/A   Clear
10:55 AM 77.0 °F 59.0 °F 54% 29.92 in 10.0 mi SW 11.5 mph - N/A   Clear
11:15 AM 77.0 °F 59.0 °F 54% 29.92 in 10.0 mi SW 10.4 mph - N/A   Clear
11:35 AM 78.8 °F 59.0 °F 51% 29.92 in 10.0 mi SW 15.0 mph - N/A   Clear
11:55 AM 78.8 °F 59.0 °F 51% 29.93 in 10.0 mi WSW 16.1 mph - N/A   Clear
12:15 PM 77.0 °F 59.0 °F 54% 29.93 in 10.0 mi WSW 15.0 mph - N/A   Clear
12:35 PM 77.0 °F 59.0 °F 54% 29.92 in 10.0 mi SW 15.0 mph - N/A   Clear
12:55 PM 77.0 °F 59.0 °F 54% 29.92 in 10.0 mi SW 15.0 mph - N/A   Clear
1:15 PM 77.0 °F 59.0 °F 54% 29.91 in 10.0 mi SW 15.0 mph 23.0 mph N/A   Clear
1:35 PM 77.0 °F 59.0 °F 54% 29.91 in 10.0 mi SW 13.8 mph - N/A   Clear
1:55 PM 77.0 °F 59.0 °F 54% 29.91 in 10.0 mi SW 15.0 mph 20.7 mph N/A   Clear
2:15 PM 77.0 °F 59.0 °F 54% 29.91 in 10.0 mi SW 18.4 mph - N/A   Clear
2:35 PM 77.0 °F 59.0 °F 54% 29.91 in 10.0 mi SW 13.8 mph - N/A   Clear
2:55 PM 77.0 °F 59.0 °F 54% 29.90 in 10.0 mi WSW 17.3 mph 23.0 mph N/A   Clear
3:15 PM 77.0 °F 59.0 °F 54% 29.90 in 10.0 mi SSW 15.0 mph - N/A   Clear
3:35 PM 75.2 °F 59.0 °F 57% 29.90 in 10.0 mi WSW 11.5 mph 24.2 mph N/A   Clear
3:55 PM 75.2 °F 59.0 °F 57% 29.90 in 10.0 mi SW 16.1 mph - N/A   Clear
4:15 PM 75.2 °F 59.0 °F 57% 29.90 in 10.0 mi WSW 15.0 mph - N/A   Clear
4:35 PM 75.2 °F 59.0 °F 57% 29.90 in 10.0 mi WSW 12.7 mph 18.4 mph N/A   Clear
4:55 PM 75.2 °F 59.0 °F 57% 29.90 in 10.0 mi SW 11.5 mph 19.6 mph N/A   Clear
5:15 PM 75.2 °F 59.0 °F 57% 29.89 in 10.0 mi SW 12.7 mph - N/A   Clear
5:35 PM 75.2 °F 59.0 °F 57% 29.90 in 10.0 mi WSW 10.4 mph - N/A   Clear
5:55 PM 73.4 °F 59.0 °F 61% 29.90 in 10.0 mi SW 10.4 mph - N/A   Clear
6:15 PM 71.6 °F 59.0 °F 64% 29.90 in 10.0 mi SW 17.3 mph - N/A   Clear
6:35 PM 71.6 °F 59.0 °F 64% 29.91 in 10.0 mi WSW 13.8 mph - N/A   Clear
6:55 PM 69.8 °F 59.0 °F 68% 29.92 in 10.0 mi WSW 9.2 mph 17.3 mph N/A   Clear
7:15 PM 68.0 °F 59.0 °F 73% 29.92 in 10.0 mi WSW 11.5 mph - N/A   Clear
7:35 PM 68.0 °F 59.0 °F 73% 29.93 in 10.0 mi West 9.2 mph - N/A   Clear
7:55 PM 66.2 °F 59.0 °F 78% 29.94 in 10.0 mi West 6.9 mph - N/A   Partly Cloudy
8:15 PM 66.2 °F 59.0 °F 78% 29.94 in 10.0 mi WSW 6.9 mph - N/A   Mostly Cloudy
8:55 PM 66.2 °F 59.0 °F 78% 29.95 in 10.0 mi West 9.2 mph - N/A   Overcast
9:15 PM 66.2 °F 59.0 °F 78% 29.95 in 10.0 mi West 8.1 mph - N/A   Mostly Cloudy
9:35 PM 66.2 °F 59.0 °F 78% 29.95 in 10.0 mi West 8.1 mph 15.0 mph N/A   Mostly Cloudy
9:55 PM 66.2 °F 59.0 °F 78% 29.94 in 10.0 mi WSW 8.1 mph - N/A   Partly Cloudy
10:15 PM 66.2 °F 59.0 °F 78% 29.95 in 10.0 mi West 8.1 mph 13.8 mph N/A   Clear
10:35 PM 64.4 °F 59.0 °F 83% 29.94 in 10.0 mi Calm Calm - N/A   Clear
10:55 PM 64.4 °F 59.0 °F 83% 29.94 in 10.0 mi WNW 5.8 mph 11.5 mph N/A   Clear
11:15 PM 64.4 °F 59.0 °F 83% 29.94 in 10.0 mi West 9.2 mph 16.1 mph N/A   Clear
11:35 PM 64.4 °F 59.0 °F 83% 29.95 in 10.0 mi West 9.2 mph - N/A   Clear
11:55 PM 64.4 °F 59.0 °F 83% 29.95 in 10.0 mi North - - N/A   Clear